CZ-6A DEB, 54888

Orbit data source: Space-Track

CZ-6A DEB, 54888 is space debris in SSO originally from a launch on Fri, 11 Nov 2022 UTC launched from the Taiyaun Space Center, China (TSC). Debris objects in space refer to the collection of defunct objects orbiting the Earth. Examples of debris include non-operational satellites, rocket bodies, and fragments generated from explosions, collisions, or faulty payload assembly.

Loading next visibility...
Identifier
54888, 2022-151PZ
Orbit
SSO
Country
Flag of CNCN / PRC
Related business
Manufacturer
SAST
Mission
Spacecraft
Bus & Motor
Unknown
Mass
Unknown
Launch date (UTC)
2022-11-11 (4 years ago)
Launch vehicle
Unknown
Launch site
Taiyaun Space Center, China (TSC)
Object type
Payload
Rocket body
Debris
Shape & HBR
Unknown shape, 0.1 m
Radar Cross Section
Medium (>0.1 m² and <1 m²)

Expand to show TLE details & history
Last TLE update: 11 hours ago

TLE from 11 hours ago
0 CZ-6A DEB
1 54888U 22151PZ  26236.26019683  .00028651  00000-0  20518-2 0  9998
2 54888  98.6337 344.3915 0053959 298.1382  61.4394 15.03174815202011
Epoch: 2026-08-24T06:14Z
TLE epoch observation values (Epoch: 2026-08-24T06:14:41.006Z)
Latitude
0.00001°
Longitude
-81.82381°
Altitude
542.405 km
Speed
7.601 km/s
True Right ascension
22h 57m 33s
True Declination
0° 00' 00"
Sunlit
Object was in full shadow at epoch
Visualization orbit readout
Latitude
Unknown
Longitude
Unknown
Altitude
Unknown
Speed
Unknown
Apparent Right ascension
Unknown
Apparent Declination
Unknown
Sunlit
N/A
Visualization observer readout
Local Sidereal Time
08:51:10
Azimuth
Unknown
Elevation
Unknown
Doppler factor
Unknown
Orbital elements
Apogee altitude
591.564 km
Perigee altitude
516.753 km
Semi-major axis
6,932.295 km
Eccentricity
0.0054
Inclination
98.6337°
RAAN
344.3915°
Arg. of periapsis
298.1382°
True anomaly
61.98423°
Mean anomaly
61.4394°
Eccentric anomaly
61.71164°
Mean motion
3.76034 °/min
Orbital period
95.74 mins
BSTAR
0.0020518
Loading maneuver chart data...
Computing Atmospheric mass density...
Loading historical data...
Loading historical data...
Loading historical data...
Loading historical data...
Loading historical data...
Loading historical data...
Loading historical data...

Documentation

Showing up to 5 results
|